Presure
172 167 169 172 167 163 164 165 159 150 181 177 169 179 179 176 172 155 149 176 169 172 171 158 157 175 167 145 179 167 200 172
178 179 173 165 173 168 169 168 158 166 168 165 166 158 171 162 156 151 164 151 164 139 140 179 142 149 155 153 156 177 170 170
181 164 179 182 172 170 164 150 174 165 158 175 152 174 158 167 160 159 164 161 139 184 163 167 172 155 162 165 150 162 166 166
182 166 163 172 153 179 164 164 114 181 162 136 163 160 161 159 176 162 171 169 163 171 154 182 181 173 155 151 177 162 155 141
193 191 201 183 133 146 167 159 147 160 161 137 168 168 163 147 160 159 179 109 138 169 155 175 163 154 171 159 165 134 136 151
190 182 169 189 186 191 179 165 141 170 164 178 179 168 162 161 167 163 154 182 152 175 153 138 185 137 165 155 158 155 149 142
151 160 173 188 190 176 178 172 149 174 161 151 164 164 166 162 165 155 145 163 145 149 151 160 135 163 163 145 135 139 144 169
177 180 181 170 166 174 172 174 164 155 153 160 164 164 163 153 152 102 168 150 153 160 137 134 135 144 152 138 145 147 126 159
154 183 174 162 165 164 157 154 165 170 172 168 165 165 177 165 140 139 144 143 101 144 157 146 153 148 145 152 152 145 144 152
198 171 139 172 171 173 172 171 161 163 170 166 169 163 160 154 150 159 148 163 166 161 137 135 148 135 134 145 130 144 158 158
204 176 187 199 207 193 167 162 166 167 161 163 160 170 171 170 169 166 162 141 149 153 152 164 145 160 143 151 154 144 143 150
178 198 186 192 183 171 171 191 179 93 152 175 175 165 159 173 174 174 176 180 173 157 146 153 141 130 153 143 144 146 144 151
171 177 205 190 151 183 177 180 94 168 177 168 162 173 165 156 173 163 171 162 187 169 166 185 131 155 123 169 126 141 144 150
174 179 163 151 176 176 193 188 169 173 172 174 171 166 173 153 182 181 176 179 168 162 184 160 190 198 151 140 147 160 153 145
172 174 167 183 178 184 177 194 191 195 180 168 173 169 162 165 180 172 188 187 165 188 190 177 171 168 184 172 178 160 154 156
173 174 164 176 177 161 172 180 155 178 188 174 186 177 184 191 180 173 182 166 177 189 191 198 208 176 200 158 184 213 172 159
172 172 175 170 173 187 174 163 161 160 162 188 181 178 170 186 185 192 178 200 179 175 194 203 207 206 186 182 165 186 187 166
174 165 177 178 170 180 166 170 160 169 173 170 172 183 181 186 178 210 172 180 197 185 202 194 190 207 197 152 191 179 165 187
173 172 174 165 173 188 173 161 172 189 182 181 186 185 193 191 180 179 186 188 198 213 209 220 212 221 210 218 198 201 216 159
172 173 180 177 179 177 183 181 177 169 194 170 203 198 172 202 218 193 213 212 207 229 245 235 293 299 314 238 280 258 159 174
Wind_Speed
35 37 40 42 42 38 37 34 37 37 25 28 34 26 27 31 33 41 37 28 36 35 34 48 49 37 43 58 32 47 29 39
32 33 38 39 43 37 38 37 38 31 33 35 32 34 33 38 36 39 36 46 38 39 46 32 52 54 51 51 57 32 40 37
38 33 35 37 46 47 39 35 39 37 40 36 36 32 34 31 35 38 39 40 47 30 35 36 37 45 37 44 52 38 42 43
32 32 32 32 37 43 39 39 28 39 39 28 36 38 36 35 26 35 26 30 38 34 42 25 34 35 48 54 38 30 45 40
37 33 34 36 28 35 44 40 34 37 37 40 35 36 36 40 35 33 29 29 35 39 35 31 32 48 30 43 34 52 57 49
35 35 29 37 38 36 39 42 37 41 40 36 33 37 36 36 33 31 32 38 40 34 40 51 38 54 37 39 37 38 43 52
41 37 32 29 32 33 35 36 41 40 41 48 40 38 38 37 35 38 40 39 52 47 40 35 53 39 42 55 56 51 43 49
38 33 38 36 42 38 38 39 42 45 49 50 46 45 44 35 38 24 43 47 48 53 54 61 59 52 51 55 51 61 38 47
44 34 42 47 48 48 44 41 47 43 48 48 48 48 49 45 51 50 52 49 32 51 47 48 49 51 57 61 67 66 54 50
44 37 39 48 49 50 53 54 50 51 55 60 59 57 56 51 48 50 56 57 60 64 54 50 55 55 61 63 43 67 73 71
49 49 50 44 44 47 54 56 56 62 57 57 55 58 64 65 66 66 65 59 61 60 67 70 57 68 64 63 73 69 62 66
63 57 57 58 65 61 55 58 63 24 48 68 69 65 51 71 74 75 74 73 71 74 65 74 69 44 71 69 72 69 77 80
63 61 54 60 60 67 62 67 27 64 70 72 68 76 69 60 80 69 79 68 86 70 66 81 68 78 40 79 52 79 79 72
67 66 70 68 65 67 72 75 70 72 72 76 75 71 84 52 85 87 86 88 85 86 91 74 96 87 78 73 83 81 85 83
71 66 69 63 64 62 68 66 68 76 82 79 87 82 81 80 89 81 89 91 69 97 100 89 92 62 87 88 81 90 86 81
84 80 77 78 71 80 74 68 64 77 74 83 82 81 91 93 98 89 97 76 92 98 104 108 105 78 108 80 82 98 75 96
89 82 83 83 83 74 81 90 84 84 85 86 90 95 93 102 99 103 105 96 93 87 112 111 112 114 76 70 66 81 82 87
92 81 91 90 84 82 85 89 89 96 97 97 98 96 101 108 101 108 88 101 119 106 123 119 111 119 110 83 91 100 80 84
97 92 96 90 89 87 92 94 100 93 100 100 99 111 112 116 104 106 113 117 124 129 133 137 136 138 125 124 106 103 124 85
95 95 98 94 96 95 94 95 101 98 101 103 105 112 86 120 118 119 130 133 133 137 139 136 143 147 141 138 138 130 96 97
Wind_Direction
267 276 276 276 279 279 280 267 270 288 289 284 269 275 267 258 256 275 276 260 261 265 264 275 277 281 287 283 296 295 311 301
284 275 272 281 275 277 275 278 276 276 277 270 276 267 270 265 267 272 260 274 269 281 280 269 280 284 283 286 295 302 299 298
277 292 279 274 273 283 295 294 279 280 278 279 274 277 271 274 267 268 266 271 277 299 271 265 279 277 281 284 294 302 302 300
285 289 294 278 308 274 287 284 301 280 282 282 277 271 272 272 278 267 272 277 267 280 270 274 285 276 276 278 284 296 303 286
280 283 279 275 311 289 279 284 286 284 278 285 278 277 273 283 272 270 287 280 270 285 268 289 284 264 292 272 285 281 285 294
291 292 294 283 282 277 272 271 292 280 275 277 275 275 279 277 275 270 264 296 261 287 268 276 299 279 286 280 286 276 272 279
334 325 294 284 275 274 276 278 283 285 281 281 277 279 282 281 283 282 257 277 254 268 269 287 274 298 287 268 272 272 275 286
293 281 283 296 292 282 278 272 275 279 283 280 283 284 279 268 271 294 288 267 271 285 270 273 274 269 273 271 282 277 268 282
332 279 276 294 291 281 290 300 276 272 277 278 276 276 274 283 272 273 273 272 289 263 271 257 269 267 273 274 274 276 277 274
292 307 328 274 275 276 276 275 286 276 268 269 269 269 271 273 269 261 261 269 266 269 276 277 255 269 272 272 283 279 276 278
299 311 294 280 280 264 273 279 278 275 282 281 281 276 272 270 265 263 261 268 265 250 270 264 256 256 255 261 264 270 276 274
318 306 306 299 298 299 293 274 270 286 287 271 272 275 285 276 278 277 273 268 259 255 258 253 269 267 250 250 256 265 270 269
318 328 310 303 326 295 297 285 302 291 282 285 295 276 289 296 281 293 283 282 274 264 254 265 280 264 280 249 282 272 265 264
323 323 316 321 309 305 293 289 294 291 287 280 285 289 284 295 277 275 274 273 271 273 271 251 270 266 270 267 260 254 252 265
319 318 319 314 304 299 297 295 291 285 285 294 284 290 301 292 275 279 274 269 282 269 269 278 270 258 270 260 265 245 253 257
319 321 315 314 309 310 302 298 312 287 280 289 281 282 281 284 285 291 282 296 287 270 269 268 267 274 264 248 261 262 242 247
315 317 314 310 312 308 304 307 309 307 304 285 282 282 292 282 284 279 290 277 289 292 277 271 271 273 274 263 250 257 255 249
313 312 314 309 306 305 304 302 310 302 297 300 296 291 289 284 290 278 296 295 279 285 279 282 273 269 275 245 268 270 254 257
311 310 307 303 303 302 295 305 295 292 290 292 294 287 283 282 291 295 291 291 285 279 279 275 276 272 274 266 266 255 269 240
307 304 300 301 298 296 292 289 289 301 288 300 286 281 296 278 283 288 279 280 284 279 277 276 274 271 267 267 261 260 258 241